"Platform","Thunder Bay Island"
"Latitude (deg)",45.03472
"Longitude (deg)",-83.19417
"Sensor Device","Campbell CR1000 Logger analog input and Pololu ACS711EX current sensor"
"Sensor Type","Battery current"
"Sensor Units","amps (+=charging)"
"Measurement","2 minute average of data samples taken at 5 second interval"
"Time means","Time at beginning of averaging period (UTC time zone)"

"Note:","This data was collected for research purposes."
"Note:","Minimal quality checking has been performed so data may contain known or unknown errors."
"Note:","Data provided by NOAA. Please credit NOAA."
"Note:","For more info see www.glerl.noaa.gov/res/recon"

"Time (UTC)","Battery Current"
"YYYY/MM/DD HH:MM","amps"
2020/11/05 19:20, 0.5710817
2020/11/05 19:22, 0.5611398
2020/11/05 19:24, 0.5431944
2020/11/05 19:26, 0.5633282
2020/11/05 19:28, 0.5274372
2020/11/05 19:30, 0.4223899
2020/11/05 19:32, 0.3646491
2020/11/05 19:34, 0.429393
2020/11/05 19:36, 0.504677
2020/11/05 19:38, 0.5340027
2020/11/05 19:40, 0.5283124
2020/11/05 19:42, 0.544945
2020/11/05 19:44, 0.5213094
2020/11/05 19:46, 0.5169325
2020/11/05 19:48, 0.5252486
2020/11/05 19:50, 0.5086163
2020/11/05 19:52, 0.5204341
2020/11/05 19:54, 0.5256865
2020/11/05 19:56, 0.5081785
2020/11/05 19:58, 0.5383797
2020/11/05 20:00, 0.5431943
2020/11/05 20:02, 0.5274372
2020/11/05 20:04, 0.5300633
2020/11/05 20:06, 0.5344403
2020/11/05 20:08, 0.5506351
2020/11/05 20:10, 0.5790855
2020/11/05 20:12, 0.5628906
2020/11/05 20:14, 0.5405681
2020/11/05 20:16, 0.5138686
2020/11/05 20:18, 0.5221848
2020/11/05 20:20, 0.5340027
2020/11/05 20:22, 0.4823544
2020/11/05 20:24, 0.4722873
2020/11/05 20:26, 0.4731628
2020/11/05 20:28, 0.481479
2020/11/05 20:30, 0.4639711
2020/11/05 20:32, 0.4328947
2020/11/05 20:34, 0.4766644
2020/11/05 20:36, 0.4438372
2020/11/05 20:38, 0.4932967
2020/11/05 20:40, 0.4946098
2020/11/05 20:42, 0.4639711
2020/11/05 20:44, 0.4972362
2020/11/05 20:46, 0.4613449
2020/11/05 20:48, 0.4792906
2020/11/05 20:50, 0.4941722
2020/11/05 20:52, 0.4889198
2020/11/05 20:54, 0.4731629
2020/11/05 20:56, 0.4722873
2020/11/05 20:58, 0.5016131
2020/11/05 21:00, 0.435521
2020/11/05 21:02, 0.4867314
2020/11/05 21:04, 0.4779774
2020/11/05 21:06, 0.4832298
2020/11/05 21:08, 0.4202015
2020/11/05 21:10, 0.4499649
2020/11/05 21:12, 0.4320192
2020/11/05 21:14, 0.4919836
2020/11/05 21:16, 0.454342
2020/11/05 21:18, 0.4797281
2020/11/05 21:20, 0.4495272
2020/11/05 21:22, 0.4066328
2020/11/05 21:24, 0.491984
2020/11/05 21:26, 0.4101345
2020/11/05 21:28, 0.4416486
2020/11/05 21:30, 0.3689909
2020/11/05 21:32, 0.4661597
2020/11/05 21:34, 0.4512781
2020/11/05 21:36, 0.4722874
2020/11/05 21:38, 0.4512779
2020/11/05 21:40, 0.455217
2020/11/05 21:42, 0.431144
2020/11/05 21:44, 0.4083837
2020/11/05 21:46, 0.4377095
2020/11/05 21:48, 0.4031312
2020/11/05 21:50, 0.3829972
2020/11/05 21:52, 0.4193261
2020/11/05 21:54, 0.4088215
2020/11/05 21:56, 0.3015856
2020/11/05 21:58, 0.08798957
2020/11/05 22:00, -0.03456521
2020/11/05 22:02, -0.2626054
2020/11/05 22:04, -0.4919583
2020/11/05 22:06, -0.554986
2020/11/05 22:08, -0.6692246
2020/11/05 22:10, -0.847805
2020/11/05 22:12, -0.9204626
2020/11/05 22:14, -0.9598553
2020/11/05 22:16, -0.994871
2020/11/05 22:18, -1.007127
2020/11/05 22:20, -1.022446
2020/11/05 22:22, -1.023321
2020/11/05 22:24, -1.017193
2020/11/05 22:26, -1.022008
2020/11/05 22:28, -1.022008
2020/11/05 22:30, -1.01413
2020/11/05 22:32, -1.018507
2020/11/05 22:34, -1.011066
2020/11/05 22:36, -1.02551
2020/11/05 22:38, -1.001874
2020/11/05 22:40, -1.019382
2020/11/05 22:42, -1.018945
2020/11/05 22:44, -1.010191
2020/11/05 22:46, -1.021571
2020/11/05 22:48, -1.019171
2020/11/05 22:50, -1.016741
2020/11/05 22:52, -1.022505
2020/11/05 22:54, -1.01183
2020/11/05 22:56, -1.025908
2020/11/05 22:58, -1.016571
2020/11/05 23:00, -1.014425
2020/11/05 23:02, -1.03949
2020/11/05 23:04, -1.086321
2020/11/05 23:06, -1.028118
2020/11/05 23:08, -1.031752
2020/11/05 23:10, -1.054629
2020/11/05 23:12, -1.07212
2020/11/05 23:14, -1.060008
2020/11/05 23:16, -1.072347
2020/11/05 23:18, -1.074815
2020/11/05 23:20, -1.074128
2020/11/05 23:22, -1.069046
2020/11/05 23:24, -1.06851
2020/11/05 23:26, -1.063024
2020/11/05 23:28, -1.075059
2020/11/05 23:30, -1.071696
2020/11/05 23:32, -1.075525
2020/11/05 23:34, -1.075044
2020/11/05 23:36, -1.055317
2020/11/05 23:38, -1.075458
2020/11/05 23:40, -1.070201
2020/11/05 23:42, -1.067573
2020/11/05 23:44, -1.070639
2020/11/05 23:46, -1.07239
2020/11/05 23:48, -1.065383
2020/11/05 23:50, -1.068011
2020/11/05 23:52, -1.067135
2020/11/05 23:54, -1.075895
2020/11/05 23:56, -1.076771
2020/11/05 23:58, -1.065821
2020/11/06 00:00, -1.076333
2020/11/06 00:02, -1.095604
2020/11/06 00:04, -1.146411
2020/11/06 00:06, -1.079836
2020/11/06 00:08, -1.072829
2020/11/06 00:10, -1.091224
2020/11/06 00:12, -1.097794
2020/11/06 00:14, -1.065821
2020/11/06 00:16, -1.066697
2020/11/06 00:18, -1.071077
2020/11/06 00:20, -1.071515
2020/11/06 00:22, -1.074581
2020/11/06 00:24, -1.079399
2020/11/06 00:26, -1.070639
2020/11/06 00:28, -1.089472
2020/11/06 00:30, -1.078522
2020/11/06 00:32, -1.080274
2020/11/06 00:34, -1.073266
2020/11/06 00:36, -1.075019
2020/11/06 00:38, -1.071953
2020/11/06 00:40, -1.065383
2020/11/06 00:42, -1.044359
2020/11/06 00:44, -1.023336
2020/11/06 00:46, -1.027278
2020/11/06 00:48, -1.012386
2020/11/06 00:50, -1.012386
2020/11/06 00:52, -1.014138
2020/11/06 00:54, -1.018518
2020/11/06 00:56, -1.02246
2020/11/06 00:58, -1.025526
2020/11/06 01:00, -1.032095
2020/11/06 01:02, -1.048739
2020/11/06 01:04, -1.09429
2020/11/06 01:06, -1.051805
2020/11/06 01:08, -1.028154
2020/11/06 01:10, -1.047863
2020/11/06 01:12, -1.046549
2020/11/06 01:14, -1.02684
2020/11/06 01:16, -1.01589
2020/11/06 01:18, -1.01808
2020/11/06 01:20, -1.015014
2020/11/06 01:22, -1.016328
2020/11/06 01:24, -1.019394
2020/11/06 01:26, -1.017642
2020/11/06 01:28, -1.021146
2020/11/06 01:30, -1.021584
2020/11/06 01:32, -1.025088
2020/11/06 01:34, -1.018956
2020/11/06 01:36, -1.013262
2020/11/06 01:38, -1.011948
2020/11/06 01:40, -1.025526
2020/11/06 01:42, -1.024212
2020/11/06 01:44, -1.022022
2020/11/06 01:46, -1.016328
2020/11/06 01:48, -1.016766
2020/11/06 01:50, -1.02903
2020/11/06 01:52, -1.017642
2020/11/06 01:54, -1.030343
2020/11/06 01:56, -1.027716
2020/11/06 01:58, -1.022898
2020/11/06 02:00, -1.030781
2020/11/06 02:02, -1.057937
2020/11/06 02:04, -1.113124
2020/11/06 02:06, -1.047863
2020/11/06 02:08, -1.041293
2020/11/06 02:10, -1.070201
2020/11/06 02:12, -1.060127
2020/11/06 02:14, -1.056185
2020/11/06 02:16, -1.068011
2020/11/06 02:18, -1.087282
2020/11/06 02:20, -1.064069
2020/11/06 02:22, -1.050929
2020/11/06 02:24, -1.047863
2020/11/06 02:26, -1.039103
2020/11/06 02:28, -1.039103
2020/11/06 02:30, -1.040417
2020/11/06 02:32, -1.043483
2020/11/06 02:34, -1.036913
2020/11/06 02:36, -1.033409
2020/11/06 02:38, -1.033409
2020/11/06 02:40, -1.050929
2020/11/06 02:42, -1.038227
2020/11/06 02:44, -1.044359
2020/11/06 02:46, -1.064069
2020/11/06 02:48, -1.070201
2020/11/06 02:50, -1.073267
2020/11/06 02:52, -1.089472
2020/11/06 02:54, -1.076332
2020/11/06 02:56, -1.089034
2020/11/06 02:58, -1.07677
2020/11/06 03:00, -1.085092
2020/11/06 03:02, -1.109182
2020/11/06 03:04, -1.176195
2020/11/06 03:06, -1.091662
2020/11/06 03:08, -1.092976
2020/11/06 03:10, -1.124512
2020/11/06 03:12, -1.152543
2020/11/06 03:14, -1.141593
2020/11/06 03:16, -1.078084
2020/11/06 03:18, -1.082464
2020/11/06 03:20, -1.084654
2020/11/06 03:22, -1.075018
2020/11/06 03:24, -1.083778
2020/11/06 03:26, -1.089472
2020/11/06 03:28, -1.089472
2020/11/06 03:30, -1.092976
2020/11/06 03:32, -1.095166
2020/11/06 03:34, -1.08334
2020/11/06 03:36, -1.085092
2020/11/06 03:38, -1.089472
2020/11/06 03:40, -1.09429
2020/11/06 03:42, -1.082026
2020/11/06 03:44, -1.07677
2020/11/06 03:46, -1.08334
2020/11/06 03:48, -1.086406
2020/11/06 03:50, -1.088596
2020/11/06 03:52, -1.090786
2020/11/06 03:54, -1.087282
2020/11/06 03:56, -1.093852
2020/11/06 03:58, -1.08334
2020/11/06 04:00, -1.095604
2020/11/06 04:02, -1.104802
2020/11/06 04:04, -1.152105
2020/11/06 04:06, -1.078523
2020/11/06 04:08, -1.055747
2020/11/06 04:10, -1.077647
2020/11/06 04:12, -1.053119
2020/11/06 04:14, -1.026402
2020/11/06 04:16, -1.017642
2020/11/06 04:18, -1.027716
2020/11/06 04:20, -1.027278
2020/11/06 04:22, -1.022898
2020/11/06 04:24, -1.039103
2020/11/06 04:26, -1.028592
2020/11/06 04:28, -1.028591
2020/11/06 04:30, -1.028592
2020/11/06 04:32, -1.045235
2020/11/06 04:34, -1.037789
2020/11/06 04:36, -1.034723
2020/11/06 04:38, -1.031657
2020/11/06 04:40, -1.036913
2020/11/06 04:42, -1.036475
2020/11/06 04:44, -1.029029
2020/11/06 04:46, -1.030781
2020/11/06 04:48, -1.042607
2020/11/06 04:50, -1.029905
2020/11/06 04:52, -1.035161
2020/11/06 04:54, -1.036913
2020/11/06 04:56, -1.035161
2020/11/06 04:58, -1.02684
2020/11/06 05:00, -1.01808
2020/11/06 05:02, -1.053995
2020/11/06 05:04, -1.09867
2020/11/06 05:06, -1.026402
2020/11/06 05:08, -1.034285
2020/11/06 05:10, -1.039103
2020/11/06 05:12, -1.053995
2020/11/06 05:14, -1.023773
2020/11/06 05:16, -1.02465
2020/11/06 05:18, -1.025088
2020/11/06 05:20, -1.034723
2020/11/06 05:22, -1.031219
2020/11/06 05:24, -1.025088
2020/11/06 05:26, -1.028592
2020/11/06 05:28, -1.027716
2020/11/06 05:30, -1.028592
2020/11/06 05:32, -1.029906
2020/11/06 05:34, -1.034285
2020/11/06 05:36, -1.025088
2020/11/06 05:38, -1.032533
2020/11/06 05:40, -1.029905
2020/11/06 05:42, -1.025526
2020/11/06 05:44, -1.037351
2020/11/06 05:46, -1.024212
2020/11/06 05:48, -1.030782
2020/11/06 05:50, -1.01808
2020/11/06 05:52, -1.024211
2020/11/06 05:54, -1.032971
2020/11/06 05:56, -1.040417
2020/11/06 05:58, -1.038227
2020/11/06 06:00, -1.061441
2020/11/06 06:02, -1.095166
2020/11/06 06:04, -1.151229
2020/11/06 06:06, -1.088596
2020/11/06 06:08, -1.090348
2020/11/06 06:10, -1.130206
2020/11/06 06:12, -1.138089
2020/11/06 06:14, -1.092538
2020/11/06 06:16, -1.09648
2020/11/06 06:18, -1.087282
2020/11/06 06:20, -1.091224
2020/11/06 06:22, -1.080712
2020/11/06 06:24, -1.085968
2020/11/06 06:26, -1.081588
2020/11/06 06:28, -1.079398
2020/11/06 06:30, -1.091662
2020/11/06 06:32, -1.086844
2020/11/06 06:34, -1.080274
2020/11/06 06:36, -1.08334
2020/11/06 06:38, -1.080274
2020/11/06 06:40, -1.087282
2020/11/06 06:42, -1.08334
2020/11/06 06:44, -1.097794
2020/11/06 06:46, -1.088596
2020/11/06 06:48, -1.087282
2020/11/06 06:50, -1.093414
2020/11/06 06:52, -1.086844
2020/11/06 06:54, -1.10305
2020/11/06 06:56, -1.088596
2020/11/06 06:58, -1.088158
2020/11/06 07:00, -1.08772
2020/11/06 07:02, -1.122322
2020/11/06 07:04, -1.166559
2020/11/06 07:06, -1.091224
2020/11/06 07:08, -1.098232
2020/11/06 07:10, -1.1359
2020/11/06 07:12, -1.117942
2020/11/06 07:14, -1.052681
2020/11/06 07:16, -1.046111
2020/11/06 07:18, -1.036037
2020/11/06 07:20, -1.028592
2020/11/06 07:22, -1.019394
2020/11/06 07:24, -1.037789
2020/11/06 07:26, -1.037351
2020/11/06 07:28, -1.029029
2020/11/06 07:30, -1.037351
2020/11/06 07:32, -1.044797
2020/11/06 07:34, -1.036475
2020/11/06 07:36, -1.031219
2020/11/06 07:38, -1.041293
2020/11/06 07:40, -1.043045
2020/11/06 07:42, -1.048301
2020/11/06 07:44, -1.042169
2020/11/06 07:46, -1.044797
2020/11/06 07:48, -1.040855
2020/11/06 07:50, -1.042607
2020/11/06 07:52, -1.046987
2020/11/06 07:54, -1.038227
2020/11/06 07:56, -1.040855
2020/11/06 07:58, -1.029029
2020/11/06 08:00, -1.040855
2020/11/06 08:02, -1.054871
2020/11/06 08:04, -1.099108
2020/11/06 08:06, -1.061879
2020/11/06 08:08, -1.039541
2020/11/06 08:10, -1.061003
2020/11/06 08:12, -1.067135
2020/11/06 08:14, -1.034285
2020/11/06 08:16, -1.040855
2020/11/06 08:18, -1.044359
2020/11/06 08:20, -1.030781
2020/11/06 08:22, -1.034723
2020/11/06 08:24, -1.029467
2020/11/06 08:26, -1.029905
2020/11/06 08:28, -1.038227
2020/11/06 08:30, -1.041293
2020/11/06 08:32, -1.036037
2020/11/06 08:34, -1.037789
2020/11/06 08:36, -1.032095
2020/11/06 08:38, -1.037789
2020/11/06 08:40, -1.045235
2020/11/06 08:42, -1.042607
2020/11/06 08:44, -1.048739
2020/11/06 08:46, -1.046987
2020/11/06 08:48, -1.039103
2020/11/06 08:50, -1.040417
2020/11/06 08:52, -1.045235
2020/11/06 08:54, -1.040417
2020/11/06 08:56, -1.050929
2020/11/06 08:58, -1.053557
2020/11/06 09:00, -1.066697
2020/11/06 09:02, -1.106992
2020/11/06 09:04, -1.156923
2020/11/06 09:06, -1.104364
2020/11/06 09:08, -1.103926
2020/11/06 09:10, -1.12714
2020/11/06 09:12, -1.12714
2020/11/06 09:14, -1.085092
2020/11/06 09:16, -1.099984
2020/11/06 09:18, -1.103488
2020/11/06 09:20, -1.093852
2020/11/06 09:22, -1.092538
2020/11/06 09:24, -1.098232
2020/11/06 09:26, -1.09429
2020/11/06 09:28, -1.0921
2020/11/06 09:30, -1.096042
2020/11/06 09:32, -1.102174
2020/11/06 09:34, -1.099984
2020/11/06 09:36, -1.095604
2020/11/06 09:38, -1.082026
2020/11/06 09:40, -1.09648
2020/11/06 09:42, -1.091224
2020/11/06 09:44, -1.091662
2020/11/06 09:46, -1.092976
2020/11/06 09:48, -1.099984
2020/11/06 09:50, -1.099108
2020/11/06 09:52, -1.10305
2020/11/06 09:54, -1.092538
2020/11/06 09:56, -1.101298
2020/11/06 09:58, -1.105678
2020/11/06 10:00, -1.09648
2020/11/06 10:02, -1.119694
2020/11/06 10:04, -1.171377
2020/11/06 10:06, -1.108744
2020/11/06 10:08, -1.097794
2020/11/06 10:10, -1.12714
2020/11/06 10:12, -1.101298
2020/11/06 10:14, -1.066697
2020/11/06 10:16, -1.058813
2020/11/06 10:18, -1.036913
2020/11/06 10:20, -1.025964
2020/11/06 10:22, -1.018956
2020/11/06 10:24, -1.024212
2020/11/06 10:26, -1.043483
2020/11/06 10:28, -1.037351
2020/11/06 10:30, -1.038665
2020/11/06 10:32, -1.038665
2020/11/06 10:34, -1.037351
2020/11/06 10:36, -1.040417
2020/11/06 10:38, -1.031219
2020/11/06 10:40, -1.034285
2020/11/06 10:42, -1.039103
2020/11/06 10:44, -1.038227
2020/11/06 10:46, -1.040855
2020/11/06 10:48, -1.043483
2020/11/06 10:50, -1.043045
2020/11/06 10:52, -1.034723
2020/11/06 10:54, -1.041731
2020/11/06 10:56, -1.032095
2020/11/06 10:58, -1.025964
2020/11/06 11:00, -1.031219
2020/11/06 11:02, -1.061441
2020/11/06 11:04, -1.119256
2020/11/06 11:06, -1.039541
2020/11/06 11:08, -1.042169
2020/11/06 11:10, -1.072391
2020/11/06 11:12, -1.058375
2020/11/06 11:14, -1.043045
2020/11/06 11:16, -1.038227
2020/11/06 11:18, -1.034285
2020/11/06 11:20, -1.043921
2020/11/06 11:22, -1.023336
2020/11/06 11:24, -1.026839
2020/11/06 11:26, -1.034723
2020/11/06 11:28, -1.034723
2020/11/06 11:30, -1.029467
2020/11/06 11:32, -1.025963
2020/11/06 11:34, -1.028591
2020/11/06 11:36, -1.029905
2020/11/06 11:38, -1.033847
2020/11/06 11:40, -1.035161
2020/11/06 11:42, -1.038227
2020/11/06 11:44, -1.033847
2020/11/06 11:46, -1.036913
2020/11/06 11:48, -1.039979
2020/11/06 11:50, -1.034285
2020/11/06 11:52, -1.032095
2020/11/06 11:54, -1.036037
2020/11/06 11:56, -1.038227
2020/11/06 11:58, -1.034723
2020/11/06 12:00, -1.052243
2020/11/06 12:02, -1.088159
2020/11/06 12:04, -1.159113
2020/11/06 12:06, -1.088596
2020/11/06 12:08, -1.096042
2020/11/06 12:10, -1.12495
2020/11/06 12:12, -1.117066
2020/11/06 12:14, -1.095166
2020/11/06 12:16, -1.096918
2020/11/06 12:18, -1.095604
2020/11/06 12:20, -1.09867
2020/11/06 12:22, -1.09429
2020/11/06 12:24, -1.096918
2020/11/06 12:26, -1.102612
2020/11/06 12:28, -1.088596
2020/11/06 12:30, -1.084216
2020/11/06 12:32, -0.9580749
2020/11/06 12:34, -0.9195317
2020/11/06 12:36, -0.862155
2020/11/06 12:38, -0.5971699
2020/11/06 12:40, -0.6256394
2020/11/06 12:42, -0.7885724
2020/11/06 12:44, -0.7833162
2020/11/06 12:46, -0.7579129
2020/11/06 12:48, -0.7180555
2020/11/06 12:50, -0.6922141
2020/11/06 12:52, -0.6558609
2020/11/06 12:54, -0.6033018
2020/11/06 12:56, -0.5621306
2020/11/06 12:58, -0.5108854
2020/11/06 13:00, -0.4719044
2020/11/06 13:02, -0.4136516
2020/11/06 13:04, -0.3996359
2020/11/06 13:06, -0.2410828
2020/11/06 13:08, -0.1565507
2020/11/06 13:10, -0.1701283
2020/11/06 13:12, -0.1372791
2020/11/06 13:14, -0.04836662
2020/11/06 13:16, -0.005443255
2020/11/06 13:18, 0.04623954
2020/11/06 13:20, 0.1158802
2020/11/06 13:22, 0.2148664
2020/11/06 13:24, 0.3436358
2020/11/06 13:26, 0.4614552
2020/11/06 13:28, 0.5586896
2020/11/06 13:30, 0.5911009
2020/11/06 13:32, 0.683517
2020/11/06 13:34, 0.7211842
2020/11/06 13:36, 0.8473261
2020/11/06 13:38, 0.9730294
2020/11/06 13:40, 0.9633935
2020/11/06 13:42, 1.151292
2020/11/06 13:44, 1.327365
2020/11/06 13:46, 1.503875
2020/11/06 13:48, 1.686955
2020/11/06 13:50, 1.908579
2020/11/06 13:52, 2.039977
2020/11/06 13:54, 2.160424
2020/11/06 13:56, 1.941867
2020/11/06 13:58, 1.834997
2020/11/06 14:00, 2.032531
2020/11/06 14:02, 2.007127
2020/11/06 14:04, 1.899381
2020/11/06 14:06, 2.241891
2020/11/06 14:08, 2.445557
2020/11/06 14:10, 2.484538
2020/11/06 14:12, 2.708352
2020/11/06 14:14, 2.767481
2020/11/06 14:16, 2.7631
2020/11/06 14:18, 2.637397
2020/11/06 14:20, 2.936107
2020/11/06 14:22, 3.403006
2020/11/06 14:24, 3.356141
2020/11/06 14:26, 3.675437
2020/11/06 14:28, 3.544216
2020/11/06 14:30, 3.464654
2020/11/06 14:32, 3.496028
2020/11/06 14:34, 3.646851
2020/11/06 14:36, 4.263593
2020/11/06 14:38, 4.164676
2020/11/06 14:40, 4.348756
2020/11/06 14:42, 4.505575
2020/11/06 14:44, 4.18117
2020/11/06 14:46, 4.282488
2020/11/06 14:48, 4.396534
2020/11/06 14:50, 4.42884
2020/11/06 14:52, 4.845927
2020/11/06 14:54, 4.683175
2020/11/06 14:56, 5.528196
2020/11/06 14:58, 5.860565
2020/11/06 15:00, 6.017084
2020/11/06 15:02, 6.197651
2020/11/06 15:04, 6.428705
2020/11/06 15:06, 6.729798
2020/11/06 15:08, 6.903542
2020/11/06 15:10, 6.348677
2020/11/06 15:12, 6.197683
2020/11/06 15:14, 6.087769
2020/11/06 15:16, 5.917124
2020/11/06 15:18, 5.756897
2020/11/06 15:20, 5.671801
2020/11/06 15:22, 5.53123
2020/11/06 15:24, 5.223941
2020/11/06 15:26, 5.205547
2020/11/06 15:28, 5.090431
2020/11/06 15:30, 4.937675
2020/11/06 15:32, 4.80374
2020/11/06 15:34, 4.626472
2020/11/06 15:36, 4.569134
2020/11/06 15:38, 4.429071
2020/11/06 15:40, 4.262746
2020/11/06 15:42, 4.160326
2020/11/06 15:44, 4.062719
2020/11/06 15:46, 3.886765
2020/11/06 15:48, 3.670543
2020/11/06 15:50, 3.674044
2020/11/06 15:52, 3.642968
2020/11/06 15:54, 3.704682
2020/11/06 15:56, 3.563307
2020/11/06 15:58, 3.389979
2020/11/06 16:00, 3.213587
2020/11/06 16:02, 3.12561
2020/11/06 16:04, 3.057767
2020/11/06 16:06, 2.989924
2020/11/06 16:08, 2.904573
2020/11/06 16:10, 2.838043
2020/11/06 16:12, 2.814845
2020/11/06 16:14, 2.746565
2020/11/06 16:16, 2.616131
2020/11/06 16:18, 2.592495
2020/11/06 16:20, 2.546099
2020/11/06 16:22, 2.509333
2020/11/06 16:24, 2.455059
2020/11/06 16:26, 2.442366
2020/11/06 16:28, 2.283481
2020/11/06 16:30, 2.209073
2020/11/06 16:32, 2.200319
2020/11/06 16:34, 2.170118
2020/11/06 16:36, 2.160489
2020/11/06 16:38, 2.042748
2020/11/06 16:40, 2.055879
2020/11/06 16:42, 2.002918
2020/11/06 16:44, 1.872484
2020/11/06 16:46, 1.912315
2020/11/06 16:48, 1.838782
2020/11/06 16:50, 1.813833
2020/11/06 16:52, 1.771376
2020/11/06 16:54, 1.760872
2020/11/06 16:56, 1.697406
2020/11/06 16:58, 1.660202
2020/11/06 17:00, 1.651886
2020/11/06 17:02, 1.583167
2020/11/06 17:04, 1.567848
2020/11/06 17:06, 1.557343
2020/11/06 17:08, 1.505695
2020/11/06 17:10, 1.512698
2020/11/06 17:12, 1.47243
2020/11/06 17:14, 1.423846
2020/11/06 17:16, 1.400648
2020/11/06 17:18, 1.364319
2020/11/06 17:20, 1.363444
2020/11/06 17:22, 1.319674
2020/11/06 17:24, 1.333243
2020/11/06 17:26, 1.349
2020/11/06 17:28, 1.245703
2020/11/06 17:30, 1.219442
2020/11/06 17:32, 1.271965
2020/11/06 17:34, 1.227758
2020/11/06 17:36, 1.18749
2020/11/06 17:38, 1.118334
2020/11/06 17:40, 1.119647
2020/11/06 17:42, 1.088133
2020/11/06 17:44, 1.112206
2020/11/06 17:46, 1.057932
2020/11/06 17:48, 0.8850412
2020/11/06 17:50, 0.9274978
2020/11/06 17:52, 0.9415042
2020/11/06 17:54, 0.9380026
2020/11/06 17:56, 0.9130538
2020/11/06 17:58, 0.8434598
2020/11/06 18:00, 0.8951084
2020/11/06 18:02, 0.8268274
2020/11/06 18:04, 0.8364568
2020/11/06 18:06, 0.8478369
2020/11/06 18:08, 0.7944379
2020/11/06 18:10, 0.8084442
2020/11/06 18:12, 0.7795563
2020/11/06 18:14, 0.7480421
2020/11/06 18:16, 0.7318473
2020/11/06 18:18, 0.7996904
2020/11/06 18:20, 0.7988148
2020/11/06 18:22, 0.741039
2020/11/06 18:24, 0.7104002
2020/11/06 18:26, 0.7209048
2020/11/06 18:28, 0.7826199
2020/11/06 18:30, 0.7624861
2020/11/06 18:32, 0.6570011
2020/11/06 18:34, 0.6438702
2020/11/06 18:36, 0.6854515
2020/11/06 18:38, 0.6539373
2020/11/06 18:40, 0.6618159
2020/11/06 18:42, 0.6928923
2020/11/06 18:44, 0.638618
2020/11/06 18:46, 0.6819498
2020/11/06 18:48, 0.6289885
2020/11/06 18:50, 0.611043
2020/11/06 18:52, 0.6893907
2020/11/06 18:54, 0.5817172
2020/11/06 18:56, 0.5847812
2020/11/06 18:58, 0.6539373
2020/11/06 19:00, 0.6193592
2020/11/06 19:02, 0.6663505
2020/11/06 19:04, 0.603602
2020/11/06 19:06, 0.5554554
2020/11/06 19:08, 0.5480148
2020/11/06 19:10, 0.6307393
2020/11/06 19:12, 0.5729635
2020/11/06 19:14, 0.5712125
2020/11/06 19:16, 0.5620211
2020/11/06 19:18, 0.5825927
2020/11/06 19:20, 0.553267
2020/11/06 19:22, 0.505558
2020/11/06 19:24, 0.5427623
2020/11/06 19:26, 0.5611455
2020/11/06 19:28, 0.5064336
2020/11/06 19:30, 0.520002
2020/11/06 19:32, 0.514312
2020/11/06 19:34, 0.5655225
2020/11/06 19:36, 0.5134366
2020/11/06 19:38, 0.5585196
2020/11/06 19:40, 0.5143122
2020/11/06 19:42, 0.4954911
2020/11/06 19:44, 0.541887
2020/11/06 19:46, 0.4705424
2020/11/06 19:48, 0.4867372
2020/11/06 19:50, 0.472293
2020/11/06 19:52, 0.5366345
2020/11/06 19:54, 0.4819225
2020/11/06 19:56, 0.5046827
2020/11/06 19:58, 0.4539099
2020/11/06 20:00, 0.4399035
2020/11/06 20:02, 0.4810471
2020/11/06 20:04, 0.4482198
2020/11/06 20:06, 0.4687915
2020/11/06 20:08, 0.4622262
2020/11/06 20:10, 0.5366345
2020/11/06 20:12, 0.4613508
2020/11/06 20:14, 0.4210826
2020/11/06 20:16, 0.4727308
2020/11/06 20:18, 0.4832354
2020/11/06 20:20, 0.4731685
2020/11/06 20:22, 0.4525967
2020/11/06 20:24, 0.4539099
2020/11/06 20:26, 0.4744817
2020/11/06 20:28, 0.4718554
2020/11/06 20:30, 0.4280856
2020/11/06 20:32, 0.4184563
2020/11/06 20:34, 0.4582869
2020/11/06 20:36, 0.3970092
2020/11/06 20:38, 0.4293989
2020/11/06 20:40, 0.4075138
2020/11/06 20:42, 0.4241463
2020/11/06 20:44, 0.4184564
2020/11/06 20:46, 0.4057632
2020/11/06 20:48, 0.4928648
2020/11/06 20:50, 0.4105779
2020/11/06 20:52, 0.4350891
2020/11/06 20:54, 0.4066386
2020/11/06 20:56, 0.3991977
2020/11/06 20:58, 0.4110156
2020/11/06 21:00, 0.4070764
2020/11/06 21:02, 0.3894459
2020/11/06 21:04, 0.4219578
2020/11/06 21:06, 0.3724983
2020/11/06 21:08, 0.4302742
2020/11/06 21:10, 0.3637442
2020/11/06 21:12, 0.3764378
2020/11/06 21:14, 0.4105778
2020/11/06 21:16, 0.3681215
2020/11/06 21:18, 0.452597
2020/11/06 21:20, 0.3768751
2020/11/06 21:22, 0.4035746
2020/11/06 21:24, 0.365933
2020/11/06 21:26, 0.400511
2020/11/06 21:28, 0.3431726
2020/11/06 21:30, 0.359805
2020/11/06 21:32, 0.3654949
2020/11/06 21:34, 0.3755623
2020/11/06 21:36, 0.3479873
2020/11/06 21:38, 0.3611181
2020/11/06 21:40, 0.3475495
2020/11/06 21:42, 0.3891308
2020/11/06 21:44, 0.38738
2020/11/06 21:46, 0.3453611
2020/11/06 21:48, 0.3825652
2020/11/06 21:50, 0.3444858
2020/11/06 21:52, 0.3405463
2020/11/06 21:54, 0.3589296
2020/11/06 21:56, 0.3619936
2020/11/06 21:58, 0.3331056
2020/11/06 22:00, 0.1435828
2020/11/06 22:02, -0.1579904
2020/11/06 22:04, -0.5396619
2020/11/06 22:06, -0.6241372
2020/11/06 22:08, -0.7650757
2020/11/06 22:10, -0.9156432
2020/11/06 22:12, -1.010186
2020/11/06 22:14, -1.07015